User: anonymous   Login
Location: Unspecified
(0.0000°N, 0.0000°E)
Time: 01:19:24
(UTC+01:00)
Language:

Cosmos 407 Rocket - Orbit

View from above orbital plane
View from above orbital plane
View from above satellite
View from above satellite

Ground track
Ground track

The orbit data is extracted from the following two-line orbital elements,

1 05175U 71035B   14328.82164587  .00000388  00000-0  13752-3 0  5641
2 05175 074.0475 129.9649 0030479 212.6455 147.2816 14.37561661280521
Epoch (UTC): 24 November 2014 19:43:10
Eccentricity: 0.0030479
inclination: 74.0475°
perigee height: 745 km
apogee height: 788 km
right ascension of ascending node: 129.9649°
argument of perigee: 212.6455°
revolutions per day: 14.37561661
mean anomaly at epoch: 147.2816°
orbit number at epoch: 28052

The dashed part of the orbit path shows where the satellite is in the earth's shadow,  

DLR